TimeCST,TemperatureF,Dew PointF,Humidity,Sea Level PressureIn,VisibilityMPH,Wind Direction,Wind SpeedMPH,Gust SpeedMPH,PrecipitationIn,Events,Conditions,WindDirDegrees,DateUTC
12:53 AM,64.0,62.1,93,30.08,10.0,Calm,Calm,-,N/A,,Clear,0,2012-11-04 05:53:00
1:53 AM,62.1,60.1,93,30.08,10.0,Calm,Calm,-,N/A,,Clear,0,2012-11-04 06:53:00
1:53 AM,61.0,60.1,97,30.07,10.0,Calm,Calm,-,N/A,,Clear,0,2012-11-04 07:53:00
2:53 AM,60.1,59.0,96,30.06,10.0,Calm,Calm,-,N/A,,Clear,0,2012-11-04 08:53:00
3:53 AM,61.0,59.0,93,30.06,10.0,Calm,Calm,-,N/A,,Clear,0,2012-11-04 09:53:00
4:53 AM,60.1,59.0,96,30.08,6.0,Calm,Calm,-,N/A,,Partly Cloudy,0,2012-11-04 10:53:00
5:53 AM,61.0,59.0,93,30.09,5.0,Calm,Calm,-,N/A,,Partly Cloudy,0,2012-11-04 11:53:00
6:51 AM,62.6,60.8,94,30.09,6.0,Calm,Calm,-,N/A,,Mostly Cloudy,0,2012-11-04 12:51:00
6:53 AM,62.1,61.0,96,30.09,6.0,Calm,Calm,-,N/A,,Mostly Cloudy,0,2012-11-04 12:53:00
7:53 AM,66.9,64.9,93,30.10,9.0,Calm,Calm,-,N/A,,Overcast,0,2012-11-04 13:53:00
8:04 AM,66.2,64.4,94,30.10,9.0,Calm,Calm,-,N/A,Thunderstorm,Thunderstorm,0,2012-11-04 14:04:00
8:13 AM,68.0,66.2,94,30.10,9.0,Calm,Calm,-,N/A,,Overcast,0,2012-11-04 14:13:00
8:42 AM,69.8,66.2,88,30.11,10.0,NNW,6.9,-,N/A,,Overcast,330,2012-11-04 14:42:00
8:53 AM,66.0,64.0,93,30.12,8.0,North,6.9,-,N/A,,Overcast,360,2012-11-04 14:53:00
9:29 AM,66.2,62.6,88,30.13,7.0,NE,9.2,-,0.00,Rain,Light Rain,40,2012-11-04 15:29:00
9:53 AM,66.9,64.9,93,30.12,10.0,ENE,9.2,-,0.01,,Overcast,60,2012-11-04 15:53:00
10:39 AM,71.6,64.4,78,30.11,10.0,ENE,9.2,-,N/A,,Mostly Cloudy,60,2012-11-04 16:39:00
10:53 AM,71.1,64.0,78,30.11,10.0,East,10.4,-,N/A,,Mostly Cloudy,90,2012-11-04 16:53:00
11:31 AM,69.8,62.6,78,30.10,10.0,ENE,9.2,-,N/A,,Overcast,60,2012-11-04 17:31:00
11:53 AM,68.0,62.1,81,30.09,10.0,East,8.1,-,0.00,,Mostly Cloudy,80,2012-11-04 17:53:00
12:53 PM,71.1,62.1,73,30.08,10.0,ENE,6.9,-,N/A,,Scattered Clouds,70,2012-11-04 18:53:00
1:53 PM,70.0,62.1,76,30.07,10.0,SE,4.6,-,N/A,,Mostly Cloudy,140,2012-11-04 19:53:00
2:53 PM,69.1,62.1,78,30.06,10.0,SE,3.5,-,N/A,,Overcast,140,2012-11-04 20:53:00
3:53 PM,70.0,62.1,76,30.04,10.0,SE,6.9,-,N/A,,Partly Cloudy,140,2012-11-04 21:53:00
4:53 PM,68.0,62.1,81,30.05,10.0,ENE,5.8,-,N/A,,Clear,70,2012-11-04 22:53:00
5:36 PM,66.2,62.6,88,30.06,10.0,SE,4.6,-,N/A,,Overcast,140,2012-11-04 23:36:00
5:53 PM,66.0,62.1,87,30.06,10.0,SSE,3.5,-,N/A,,Overcast,150,2012-11-04 23:53:00
6:13 PM,64.4,62.6,94,30.07,10.0,Calm,Calm,-,N/A,,Scattered Clouds,0,2012-11-05 00:13:00
6:53 PM,63.0,62.1,97,30.07,10.0,NE,3.5,-,N/A,,Clear,50,2012-11-05 00:53:00
7:53 PM,60.1,59.0,96,30.08,9.0,ENE,3.5,-,N/A,,Clear,70,2012-11-05 01:53:00
8:53 PM,61.0,60.1,97,30.09,7.0,Calm,Calm,-,N/A,,Clear,0,2012-11-05 02:53:00
9:53 PM,57.9,57.0,97,30.09,5.0,Calm,Calm,-,N/A,,Partly Cloudy,0,2012-11-05 03:53:00
10:20 PM,57.2,57.2,100,30.09,2.0,Calm,Calm,-,N/A,,Mostly Cloudy,0,2012-11-05 04:20:00
10:27 PM,59.0,57.2,94,30.09,0.8,North,3.5,-,N/A,,Mist,10,2012-11-05 04:27:00
10:39 PM,60.8,60.8,100,30.09,0.5,Calm,Calm,-,N/A,Fog,Fog,0,2012-11-05 04:39:00
10:51 PM,60.8,60.8,100,30.09,0.2,Calm,Calm,-,N/A,Fog,Fog,0,2012-11-05 04:51:00
10:53 PM,60.1,60.1,100,30.09,0.5,Calm,Calm,-,N/A,Fog,Fog,0,2012-11-05 04:53:00